TimeCET,TemperatureF,Dew PointF,Humidity,Sea Level PressureIn,VisibilityMPH,Wind Direction,Wind SpeedMPH,Gust SpeedMPH,PrecipitationIn,Events,Conditions,WindDirDegrees,DateUTC
12:15 AM,50.0,48.2,94,30.04,-9999.0,NE,2.3,-,N/A,,Clear,40,2011-11-10 23:15:00
12:45 AM,50.0,50.0,100,30.04,-9999.0,NE,1.2,-,N/A,,Clear,40,2011-11-10 23:45:00
1:15 AM,50.0,50.0,100,30.04,-9999.0,NE,2.3,-,N/A,,Clear,40,2011-11-11 00:15:00
1:45 AM,50.0,50.0,100,30.04,-9999.0,NNE,1.2,-,N/A,,Clear,20,2011-11-11 00:45:00
2:15 AM,48.2,48.2,100,30.04,-9999.0,NE,1.2,-,N/A,,Clear,50,2011-11-11 01:15:00
2:45 AM,48.2,48.2,100,30.04,-9999.0,NE,1.2,-,N/A,,Clear,40,2011-11-11 01:45:00
3:15 AM,48.2,48.2,100,30.04,-9999.0,NE,2.3,-,N/A,,Clear,50,2011-11-11 02:15:00
3:45 AM,48.2,48.2,100,30.04,-9999.0,NE,2.3,-,N/A,,Clear,50,2011-11-11 02:45:00
4:15 AM,46.4,46.4,100,30.04,-9999.0,NE,2.3,-,N/A,,Clear,40,2011-11-11 03:15:00
4:45 AM,46.4,46.4,100,30.04,-9999.0,NE,3.5,-,N/A,,Clear,40,2011-11-11 03:45:00
5:15 AM,46.4,46.4,100,30.04,-9999.0,NE,5.8,-,N/A,,Clear,50,2011-11-11 04:15:00
5:45 AM,46.4,46.4,100,30.04,-9999.0,NNE,3.5,-,N/A,,Clear,30,2011-11-11 04:45:00
6:15 AM,46.4,46.4,100,30.04,-9999.0,NE,4.6,-,N/A,,Clear,50,2011-11-11 05:15:00
6:45 AM,46.4,46.4,100,30.04,-9999.0,NE,4.6,-,N/A,,Clear,40,2011-11-11 05:45:00
7:15 AM,46.4,46.4,100,30.04,-9999.0,NE,4.6,-,N/A,,Clear,50,2011-11-11 06:15:00
7:45 AM,48.2,48.2,100,30.06,-9999.0,NE,3.5,-,N/A,,Clear,50,2011-11-11 06:45:00
8:15 AM,50.0,48.2,94,30.06,-9999.0,NE,3.5,-,N/A,,Clear,40,2011-11-11 07:15:00
8:45 AM,50.0,50.0,100,30.09,-9999.0,NNE,4.6,-,N/A,,Clear,30,2011-11-11 07:45:00
9:15 AM,51.8,50.0,94,30.09,6.2,NNE,3.5,-,N/A,,Partly Cloudy,20,2011-11-11 08:15:00
9:45 AM,55.4,53.6,94,30.09,6.2,North,4.6,-,N/A,,Partly Cloudy,10,2011-11-11 08:45:00
10:15 AM,55.4,51.8,88,30.09,6.2,North,2.3,-,N/A,,Partly Cloudy,360,2011-11-11 09:15:00
10:45 AM,59.0,53.6,82,30.09,6.2,NNE,4.6,-,N/A,,Partly Cloudy,30,2011-11-11 09:45:00
11:15 AM,60.8,53.6,77,30.09,6.2,North,2.3,-,N/A,,Partly Cloudy,350,2011-11-11 10:15:00
11:45 AM,62.6,53.6,72,30.12,6.2,North,3.5,-,N/A,,Partly Cloudy,360,2011-11-11 10:45:00
12:15 PM,64.4,55.4,73,30.12,6.2,North,1.2,-,N/A,,Partly Cloudy,360,2011-11-11 11:15:00
12:45 PM,64.4,55.4,73,30.12,6.2,NNW,1.2,-,N/A,,Partly Cloudy,340,2011-11-11 11:45:00
1:15 PM,64.4,53.6,68,30.09,6.2,NNW,3.5,-,N/A,,Partly Cloudy,330,2011-11-11 12:15:00
1:45 PM,64.4,51.8,64,30.09,6.2,NW,1.2,-,N/A,,Partly Cloudy,310,2011-11-11 12:45:00
2:15 PM,64.4,50.0,59,30.09,6.2,WNW,2.3,-,N/A,,Partly Cloudy,290,2011-11-11 13:15:00
2:45 PM,64.4,51.8,64,30.09,6.2,North,2.3,-,N/A,,Partly Cloudy,360,2011-11-11 13:45:00
3:15 PM,64.4,50.0,59,30.09,6.2,West,2.3,-,N/A,,Partly Cloudy,270,2011-11-11 14:15:00
3:45 PM,64.4,50.0,59,30.09,6.2,WNW,4.6,-,N/A,,Partly Cloudy,300,2011-11-11 14:45:00
4:15 PM,66.2,50.0,56,30.12,6.2,WNW,2.3,-,N/A,,Partly Cloudy,300,2011-11-11 15:15:00
4:45 PM,64.4,51.8,64,30.12,6.2,West,1.2,-,N/A,,Partly Cloudy,270,2011-11-11 15:45:00
5:15 PM,60.8,55.4,82,30.12,6.2,SSW,2.3,-,N/A,,Scattered Clouds,210,2011-11-11 16:15:00
5:45 PM,59.0,55.4,88,30.12,6.2,South,2.3,-,N/A,,Partly Cloudy,190,2011-11-11 16:45:00
6:15 PM,59.0,55.4,88,30.15,6.2,South,3.5,-,N/A,,Partly Cloudy,180,2011-11-11 17:15:00
6:45 PM,55.4,53.6,94,30.15,-9999.0,SSE,2.3,-,N/A,,Clear,160,2011-11-11 17:45:00
7:15 PM,53.6,53.6,100,30.15,-9999.0,SSE,2.3,-,N/A,,Clear,150,2011-11-11 18:15:00
7:45 PM,55.4,53.6,94,30.18,6.2,SE,2.3,-,N/A,,Partly Cloudy,130,2011-11-11 18:45:00
8:15 PM,53.6,53.6,100,30.18,6.2,SE,4.6,-,N/A,,Scattered Clouds,140,2011-11-11 19:15:00
8:45 PM,55.4,53.6,94,30.18,6.2,SSE,3.5,-,N/A,,Partly Cloudy,150,2011-11-11 19:45:00
9:15 PM,53.6,51.8,94,30.18,6.2,East,2.3,-,N/A,,Partly Cloudy,90,2011-11-11 20:15:00
9:45 PM,53.6,51.8,94,30.18,6.2,North,1.2,-,N/A,,Partly Cloudy,360,2011-11-11 20:45:00
10:15 PM,53.6,51.8,94,30.21,6.2,Calm,Calm,-,N/A,,Partly Cloudy,0,2011-11-11 21:15:00
10:45 PM,53.6,51.8,94,30.21,6.2,NE,1.2,-,N/A,,Partly Cloudy,40,2011-11-11 21:45:00
11:15 PM,51.8,51.8,100,30.21,5.0,NNE,1.2,-,N/A,,Partly Cloudy,30,2011-11-11 22:15:00
11:45 PM,51.8,50.0,94,30.24,5.0,NE,3.5,-,N/A,,Unknown,50,2011-11-11 22:45:00